USA 121

导读

USA 121是美国于1996年5月12日发射的军用侦察卫星,隶属于美国国家侦察局。作为美国空间监测网络的组成部分,它主要承担军事侦察与情报搜集任务,运行在特定轨道上,为美国提供战略态势感知支持。该卫星延续了美国USA系列卫星保密任务的特点,具体载荷细节并未公开,是美国全球军事监控体系的重要空间节点。

Basic Information
目录编号:
23908
目录名称:
USA 121
国际标识:
1996-029C
轨道中心:
EARTH
卫星名称:
USA 121
卫星全名:
--
卫星状态:
在轨 (已飞行11079 天)
发射日期:
1996-05-12 UTC
国别 :
美国 (US)
星等 :
--
This satellite is enrolled in the Space Conjunction Data Service (SCDS) and the current flight risk assessment level is: No High Risk
Orbit Information
数据来源 国际轨道数据
星历时间: 2026-09-11T13:13:17+0800
13小时前
查看轨道信息
半长轴: 7463.345km
偏心率: 0.0855744
轨道倾角: 63.319°
近地点辐角 50.855°
升交点赤经 326.369°
平近点角 316.541°
近地点: 446.536km
远地点: 1723.88km
周期: 106.945分钟
每日圈数: 13.464882
Detailed Information
使用方式:
暂无
2D Orbit Map
3D Orbit Map
Orbit Altitude Analysis Chart
Orbit Inclination Analysis Chart
Orbit Comprehensive Analysis Chart
View Comprehensive Chart
Conjunction Data List
Event ID Objects TCA Miss Dist (km) Collision Risk Probability Collision Risk Index (CRI) Action
CDM_260913-123602-390806-711621
USA 121 (23908)
2026-09-13T
12:36:20+0000
1.705 km
极远距离
3.782523E-6 低风险 0.47
CDM_260914-025302-390806-491521
USA 121 (23908)
2026-09-14T
02:53:46+0000
1.821 km
极远距离
3.235913E-6 低风险 0.45
CDM_260912-170202-390806-601721
USA 121 (23908)
2026-09-12T
17:02:01+0000
2.572 km
极远距离
5.443229E-7 极低风险 0.3
Miss Distance Evolution Trend with All Objects
Collision Probability Evolution Trend with All Objects